TJS-5

Last updated on Aug. 7, 2020, 5:35 a.m. UTC

1 44978U 20002A   20219.93905218  .00000031  00000-0  00000-0 0  9991
2 44978   0.5324 281.3068 0002322 256.5901 294.6068  1.00270687  2247
UTC
Height (km)
Latitude
Longitude
Inclination
Orbital Period
UTC large
Height (km)
Speed (km/s)
/
Latitude / Longitude
Inclination (degrees)
Orbital Period (minutes)
Azimuth
Elevation
Range (km)
Doppler Factor
iOS Compass Heading
iOS Angle

Next 30 passes for location: Hong Kong

Rise time Rise Azimuth (degrees) Set time Set Azimuth (degrees) Duration Max altitude (degrees)

No matching passes for this satellites